EZY81PG EGKK-LEAL

Flight info

Callsign EZY81PG
Flight time N/A
Altitude 37000
Route SFD Y47 BENBO UY47 DRAKE L151 SITET UN859 SOPIL DCT BALAN DCT LMG DCT PIMQO DCT AGN DCT ANETO DCT POSSY DCT XIMPE DCT RIMES N860 VLC
Aircraft A320/M-SDE3FGHIRWY/LB1

Departure

Time 2026-05-04 12:33
Airport London Gatwick Airport (EGKK)

Arrival

Time N/A
Airport Alicante-Elche Miguel Hernández Airport (LEAL)
Time Latitude Longitude Altitude Speed Heading
2026-05-04 11:53 51.15637 -0.17848 204 ft 0 kts 167°
2026-05-04 12:19 51.15659 -0.17855 216 ft 4 kts 167°
2026-05-04 12:19 51.15686 -0.17865 213 ft 4 kts 167°
2026-05-04 12:20 51.15704 -0.17870 211 ft 4 kts 209°
2026-05-04 12:20 51.15715 -0.17843 212 ft 4 kts 257°
2026-05-04 12:20 51.15718 -0.17821 213 ft 0 kts 257°
2026-05-04 12:23 51.15713 -0.17858 214 ft 10 kts 257°
2026-05-04 12:23 51.15694 -0.17997 204 ft 13 kts 258°
2026-05-04 12:23 51.15677 -0.18124 215 ft 11 kts 258°
2026-05-04 12:24 51.15662 -0.18233 212 ft 9 kts 256°
2026-05-04 12:24 51.15645 -0.18323 209 ft 8 kts 244°
2026-05-04 12:24 51.15605 -0.18350 205 ft 6 kts 180°
2026-05-04 12:24 51.15571 -0.18340 208 ft 4 kts 168°
2026-05-04 12:25 51.15540 -0.18329 204 ft 9 kts 168°
2026-05-04 12:25 51.15456 -0.18300 214 ft 12 kts 167°
2026-05-04 12:25 51.15376 -0.18272 214 ft 13 kts 168°
2026-05-04 12:25 51.15271 -0.18236 210 ft 13 kts 168°
2026-05-04 12:26 51.15197 -0.18244 213 ft 10 kts 226°
2026-05-04 12:26 51.15184 -0.18345 209 ft 10 kts 260°
2026-05-04 12:26 51.15167 -0.18468 210 ft 13 kts 258°
2026-05-04 12:26 51.15146 -0.18629 203 ft 17 kts 258°
2026-05-04 12:27 51.15117 -0.18832 207 ft 21 kts 257°
2026-05-04 12:27 51.15086 -0.19048 214 ft 15 kts 258°
2026-05-04 12:27 51.15066 -0.19195 208 ft 13 kts 256°
2026-05-04 12:27 51.15012 -0.19264 205 ft 9 kts 180°
2026-05-04 12:28 51.14965 -0.19293 210 ft 12 kts 231°
2026-05-04 12:28 51.14933 -0.19490 209 ft 20 kts 257°
2026-05-04 12:28 51.14903 -0.19701 206 ft 19 kts 258°
2026-05-04 12:28 51.14876 -0.19902 206 ft 18 kts 258°
2026-05-04 12:29 51.14850 -0.20093 207 ft 17 kts 258°
2026-05-04 12:29 51.14826 -0.20271 210 ft 16 kts 258°
2026-05-04 12:29 51.14804 -0.20431 205 ft 13 kts 257°
2026-05-04 12:29 51.14780 -0.20609 205 ft 23 kts 258°
2026-05-04 12:30 51.14744 -0.20871 206 ft 24 kts 257°
2026-05-04 12:30 51.14711 -0.21104 215 ft 15 kts 258°
2026-05-04 12:30 51.14690 -0.21256 207 ft 13 kts 255°
2026-05-04 12:30 51.14631 -0.21328 207 ft 12 kts 176°
2026-05-04 12:31 51.14541 -0.21269 208 ft 16 kts 135°
2026-05-04 12:31 51.14525 -0.21135 212 ft 0 kts 78°
2026-05-04 12:32 51.14527 -0.21120 208 ft 9 kts 78°
2026-05-04 12:32 51.14762 -0.19401 212 ft 138 kts 78°
2026-05-04 12:32 51.14990 -0.17710 466 ft 163 kts 78°
2026-05-04 12:33 51.15248 -0.15961 1196 ft 163 kts 77°
2026-05-04 12:33 51.15499 -0.14159 1744 ft 175 kts 78°
2026-05-04 12:33 51.15775 -0.12140 2092 ft 197 kts 78°
2026-05-04 12:33 51.16080 -0.09887 2380 ft 216 kts 78°
2026-05-04 12:34 51.16072 -0.07450 2904 ft 228 kts 111°
2026-05-04 12:34 51.15079 -0.05461 3459 ft 244 kts 148°
2026-05-04 12:34 51.13450 -0.04402 3967 ft 260 kts 165°
2026-05-04 12:34 51.11659 -0.03784 4791 ft 265 kts 170°
2026-05-04 12:35 51.09833 -0.03304 5637 ft 268 kts 171°
2026-05-04 12:35 51.07995 -0.02720 6487 ft 271 kts 167°
2026-05-04 12:35 51.06163 -0.01982 7288 ft 273 kts 165°
2026-05-04 12:35 51.04327 -0.01153 8114 ft 276 kts 164°
2026-05-04 12:36 51.02498 -0.00286 8901 ft 280 kts 164°
2026-05-04 12:36 51.00624 0.00612 9680 ft 283 kts 164°
2026-05-04 12:36 50.98734 0.01519 10423 ft 286 kts 164°
2026-05-04 12:36 50.96816 0.02432 11156 ft 289 kts 164°
2026-05-04 12:37 50.94885 0.03346 11855 ft 292 kts 164°
2026-05-04 12:37 50.92928 0.04272 12582 ft 295 kts 164°
2026-05-04 12:37 50.90954 0.05208 13291 ft 298 kts 164°
2026-05-04 12:37 50.88957 0.06151 13982 ft 301 kts 164°
2026-05-04 12:38 50.86939 0.07100 14642 ft 303 kts 164°
2026-05-04 12:38 50.84911 0.08052 15307 ft 305 kts 164°
2026-05-04 12:38 50.82872 0.09008 15948 ft 307 kts 164°
2026-05-04 12:38 50.80848 0.09955 16602 ft 309 kts 164°
2026-05-04 12:39 50.78746 0.10935 16940 ft 311 kts 164°
2026-05-04 12:39 50.76667 0.11635 17012 ft 310 kts 175°
2026-05-04 12:39 50.74495 0.11571 17025 ft 322 kts 188°
2026-05-04 12:39 50.72226 0.10799 17024 ft 344 kts 193°
2026-05-04 12:40 50.69864 0.09926 17022 ft 353 kts 193°
2026-05-04 12:40 50.67463 0.09050 17026 ft 355 kts 192°
2026-05-04 12:40 50.65057 0.08182 17022 ft 355 kts 192°
2026-05-04 12:40 50.62642 0.07316 17024 ft 356 kts 192°
2026-05-04 12:41 50.60223 0.06449 17022 ft 356 kts 192°
2026-05-04 12:41 50.57810 0.05585 17024 ft 356 kts 192°
2026-05-04 12:41 50.55387 0.04715 17024 ft 356 kts 192°
2026-05-04 12:41 50.52968 0.03844 17024 ft 356 kts 192°
2026-05-04 12:42 50.50549 0.02970 17023 ft 356 kts 192°
2026-05-04 12:42 50.48135 0.02098 17021 ft 356 kts 192°
2026-05-04 12:42 50.45714 0.01230 17021 ft 356 kts 192°
2026-05-04 12:42 50.43303 0.00368 17021 ft 356 kts 192°
2026-05-04 12:43 50.40884 -0.00497 17024 ft 357 kts 192°
2026-05-04 12:43 50.38465 -0.01359 17027 ft 357 kts 192°
2026-05-04 12:43 50.36044 -0.02219 17023 ft 356 kts 192°
2026-05-04 12:43 50.33629 -0.03078 17024 ft 356 kts 192°
2026-05-04 12:44 50.31216 -0.03939 17027 ft 356 kts 192°
2026-05-04 12:44 50.28797 -0.04806 17027 ft 356 kts 192°
2026-05-04 12:44 50.26386 -0.05674 17027 ft 356 kts 192°
2026-05-04 12:44 50.23961 -0.06438 17025 ft 356 kts 186°
2026-05-04 12:45 50.21494 -0.06565 17024 ft 355 kts 176°
2026-05-04 12:45 50.19048 -0.05967 17028 ft 356 kts 166°
2026-05-04 12:45 50.16716 -0.04677 17023 ft 357 kts 156°
2026-05-04 12:45 50.14450 -0.03083 17020 ft 357 kts 156°
2026-05-04 12:46 50.12177 -0.01499 17023 ft 357 kts 156°
2026-05-04 12:46 50.09884 -0.00005 17009 ft 358 kts 162°
2026-05-04 12:46 50.07477 0.01006 17016 ft 359 kts 166°
2026-05-04 12:46 50.05050 0.01951 17016 ft 359 kts 166°
2026-05-04 12:47 50.02628 0.02903 17016 ft 359 kts 166°
2026-05-04 12:47 50.00205 0.03858 17016 ft 359 kts 166°
2026-05-04 12:47 49.97782 0.04817 17016 ft 359 kts 166°
2026-05-04 12:47 49.95362 0.05774 17019 ft 358 kts 166°
2026-05-04 12:48 49.92948 0.06725 17018 ft 359 kts 166°
2026-05-04 12:48 49.90535 0.07675 17018 ft 357 kts 166°
2026-05-04 12:48 49.88121 0.08622 17018 ft 358 kts 166°
2026-05-04 12:48 49.85733 0.09555 17016 ft 359 kts 166°
2026-05-04 12:49 49.83306 0.10500 17016 ft 359 kts 166°
2026-05-04 12:49 49.80887 0.11439 17013 ft 357 kts 166°
2026-05-04 12:49 49.78474 0.12377 17010 ft 359 kts 166°
2026-05-04 12:49 49.76054 0.13319 17009 ft 358 kts 166°
2026-05-04 12:50 49.73645 0.14259 17008 ft 355 kts 166°
2026-05-04 12:50 49.71253 0.15194 17004 ft 355 kts 166°
2026-05-04 12:50 49.68849 0.16131 17005 ft 357 kts 166°
2026-05-04 12:50 49.66443 0.17079 17004 ft 356 kts 165°
2026-05-04 12:51 49.64044 0.18044 17003 ft 357 kts 165°
2026-05-04 12:51 49.61635 0.19019 17004 ft 358 kts 165°
2026-05-04 12:51 49.59228 0.19994 17001 ft 357 kts 165°
2026-05-04 12:51 49.56824 0.20965 17013 ft 357 kts 165°
2026-05-04 12:52 49.54408 0.21938 17491 ft 361 kts 165°
2026-05-04 12:52 49.51967 0.22917 18128 ft 362 kts 165°
2026-05-04 12:52 49.49519 0.23901 18674 ft 365 kts 165°
2026-05-04 12:52 49.47094 0.24877 19218 ft 366 kts 165°
2026-05-04 12:53 49.44593 0.25881 19725 ft 369 kts 165°
2026-05-04 12:53 49.42101 0.26880 20226 ft 371 kts 165°
2026-05-04 12:53 49.39587 0.27888 20736 ft 373 kts 165°
2026-05-04 12:53 49.37102 0.28881 21209 ft 376 kts 165°
2026-05-04 12:54 49.34567 0.29889 21694 ft 378 kts 166°
2026-05-04 12:54 49.32014 0.30899 22195 ft 380 kts 166°
2026-05-04 12:54 49.29453 0.31924 22685 ft 381 kts 165°
2026-05-04 12:54 49.26886 0.32992 23177 ft 383 kts 165°
2026-05-04 12:55 49.24312 0.34088 23633 ft 385 kts 165°
2026-05-04 12:55 49.21727 0.35196 24005 ft 386 kts 165°
2026-05-04 12:55 49.19130 0.36304 24394 ft 388 kts 165°
2026-05-04 12:55 49.16525 0.37413 24784 ft 389 kts 165°
2026-05-04 12:56 49.13909 0.38519 25164 ft 391 kts 165°
2026-05-04 12:56 49.11283 0.39620 25537 ft 392 kts 166°
2026-05-04 12:56 49.08645 0.40720 25908 ft 394 kts 166°
2026-05-04 12:56 49.05994 0.41821 26261 ft 396 kts 166°
2026-05-04 12:57 49.03339 0.42927 26612 ft 397 kts 166°
2026-05-04 12:57 49.00662 0.44048 26943 ft 399 kts 166°
2026-05-04 12:57 48.97987 0.45167 27302 ft 401 kts 166°
2026-05-04 12:57 48.96207 0.45912 27531 ft 402 kts 166°
2026-05-04 12:58 48.92627 0.47404 27977 ft 404 kts 166°
2026-05-04 12:58 48.89908 0.48532 28303 ft 406 kts 166°
2026-05-04 12:58 48.88064 0.49295 28526 ft 407 kts 166°
2026-05-04 12:58 48.84435 0.50793 28951 ft 409 kts 166°
2026-05-04 12:59 48.81679 0.51930 29258 ft 411 kts 166°
2026-05-04 12:59 48.79810 0.52703 29468 ft 412 kts 166°
2026-05-04 12:59 48.77039 0.53845 29758 ft 414 kts 167°
2026-05-04 12:59 48.74245 0.54963 30047 ft 416 kts 167°
2026-05-04 13:00 48.71437 0.56061 30285 ft 417 kts 167°
2026-05-04 13:00 48.68618 0.57151 30505 ft 419 kts 167°
2026-05-04 13:00 48.65787 0.58244 30765 ft 420 kts 167°
2026-05-04 13:00 48.62954 0.59338 31076 ft 420 kts 167°
2026-05-04 13:01 48.60126 0.60432 31368 ft 420 kts 167°
2026-05-04 13:01 48.57300 0.61531 31702 ft 419 kts 167°
2026-05-04 13:01 48.54516 0.62620 32012 ft 418 kts 167°
2026-05-04 13:01 48.51702 0.63723 32342 ft 418 kts 167°
2026-05-04 13:02 48.48894 0.64841 32664 ft 417 kts 167°
2026-05-04 13:02 48.46092 0.65980 32979 ft 417 kts 166°
2026-05-04 13:02 48.43302 0.67128 33301 ft 416 kts 167°
2026-05-04 13:02 48.40515 0.68273 33654 ft 414 kts 166°
2026-05-04 13:03 48.37736 0.69413 34000 ft 413 kts 167°
2026-05-04 13:03 48.34969 0.70542 34261 ft 413 kts 167°
2026-05-04 13:03 48.32190 0.71667 34487 ft 413 kts 167°
2026-05-04 13:03 48.29417 0.72789 34698 ft 414 kts 167°
2026-05-04 13:04 48.26638 0.73914 34895 ft 414 kts 167°
2026-05-04 13:04 48.23849 0.75037 35095 ft 415 kts 167°
2026-05-04 13:04 48.21053 0.76143 35283 ft 415 kts 167°
2026-05-04 13:04 48.18251 0.77241 35470 ft 416 kts 167°
2026-05-04 13:05 48.15452 0.78338 35661 ft 416 kts 167°
2026-05-04 13:05 48.12647 0.79438 35843 ft 417 kts 167°
2026-05-04 13:05 48.09840 0.80537 36024 ft 417 kts 167°
2026-05-04 13:05 48.07028 0.81636 36204 ft 418 kts 167°
2026-05-04 13:06 48.04212 0.82734 36383 ft 418 kts 167°
2026-05-04 13:06 48.01389 0.83831 36542 ft 419 kts 167°
2026-05-04 13:06 47.98573 0.84928 36682 ft 420 kts 168°
2026-05-04 13:06 47.95782 0.86015 36854 ft 419 kts 168°
2026-05-04 13:07 47.92922 0.87131 36945 ft 420 kts 168°
2026-05-04 13:07 47.87278 0.89335 36947 ft 419 kts 168°
2026-05-04 13:08 47.81673 0.91512 36948 ft 419 kts 168°
2026-05-04 13:08 47.76032 0.93690 36940 ft 419 kts 168°
2026-05-04 13:09 47.70392 0.95870 36937 ft 419 kts 168°
2026-05-04 13:09 47.64753 0.98052 36939 ft 419 kts 168°
2026-05-04 13:10 47.59111 1.00223 36930 ft 418 kts 168°
2026-05-04 13:10 47.53479 1.02385 36929 ft 418 kts 168°
2026-05-04 13:11 47.47858 1.04537 36927 ft 418 kts 168°
2026-05-04 13:11 47.42185 1.06326 36932 ft 415 kts 178°
2026-05-04 13:12 47.36442 1.06292 36921 ft 413 kts 183°
2026-05-04 13:12 47.30738 1.06146 36925 ft 413 kts 183°
2026-05-04 13:13 47.24950 1.06017 36930 ft 413 kts 182°
2026-05-04 13:13 47.19232 1.05893 36933 ft 413 kts 183°
2026-05-04 13:14 47.13488 1.05757 36937 ft 413 kts 183°
2026-05-04 13:14 47.07748 1.05622 36943 ft 413 kts 183°
2026-05-04 13:15 47.02001 1.05490 36950 ft 412 kts 183°
2026-05-04 13:15 46.96267 1.05279 36948 ft 412 kts 184°
2026-05-04 13:16 46.90547 1.05000 36947 ft 411 kts 184°
2026-05-04 13:16 46.84831 1.04742 36947 ft 410 kts 184°
2026-05-04 13:17 46.79121 1.04496 36947 ft 410 kts 184°
2026-05-04 13:17 46.73417 1.04250 36945 ft 410 kts 184°
2026-05-04 13:18 46.67719 1.04015 36944 ft 410 kts 184°